Flag for Brazil Weather past 2 weeks in Belém, Para, Brazil

Now
88 °F

Partly sunny.


Feels Like: 93 °F
Forecast: 74 / 89 °F
Wind: 7 mph from Northeast

Location: Belem Aeroporto

Current Time: Aug 22, 2014 at 1:09:01 PM

Latest Report: Aug 22, 2014 at 12:00 PM


Visibility: N/A

Pressure: 29.95 "Hg

Humidity: 55%

Dew point: 70 °F

Location of BelémLocation

Historic Weather in Belém — Graph

°F

Belém temperature yesterday

Maximum temperature yesterday: 88 °F (at 12:00 PM)
Minimum temperature yesterday: 73 °F (at 6:00 AM)
Average temperature yesterday: 81 °F

Past Weeks' High & Low Weather Summary

 TemperatureHumidityPressure
High93 °F (Aug 19, 2:00 PM)100% (Aug 9, 5:00 AM)30.01 "Hg (Aug 9, 5:00 AM)
Low73 °F (Aug 8, 3:00 AM)39% (Aug 19, 2:00 PM)29.80 "Hg (Aug 17, 4:00 PM)
Average81 °F78%29.91 "Hg
* Reported Aug 7 12:00 Noon — Aug 22 12:00 Noon, Belém, Weather by CustomWeather, © 2014

Note: Actual official high and low records may vary slightly from our data, if they occured in-between our weather recording intervals... More about our weather records

Advertising

Belém weather history for previous 24 hours

 ConditionsComfort  
Time TempWeatherWind HumidityBarometerVisibility
12:00 PM
Aug 22
88 °FPartly sunny.7 mph55%29.95 "HgN/A
11:00 AM86 °FScattered clouds.12 mph59%29.98 "HgN/A
10:00 AM84 °FScattered clouds.14 mph66%29.98 "HgN/A
9:00 AM81 °FPassing clouds.12 mph74%29.95 "HgN/A
8:00 AM77 °FSunny.7 mph83%29.95 "Hg10 mi
7:00 AM73 °FSunny.2 mph89%29.92 "Hg10 mi
6:00 AM73 °FClear.5 mph89%29.92 "Hg10 mi
5:00 AM73 °FClear.5 mph89%29.89 "Hg10 mi
4:00 AM75 °FClear.5 mph89%29.89 "Hg10 mi
3:00 AM75 °FClear.6 mph89%29.89 "Hg10 mi
2:00 AM75 °FClear.5 mph89%29.92 "Hg10 mi
1:00 AM77 °FClear.5 mph83%29.95 "Hg10 mi
12:00 AM77 °FClear.8 mph83%29.95 "Hg10 mi
11:00 PM
Aug 21
79 °FClear.8 mph79%29.95 "Hg10 mi
10:00 PM79 °FClear.10 mph79%29.95 "Hg10 mi
9:00 PM81 °FPassing clouds.8 mph74%29.92 "HgN/A
8:00 PM81 °FPassing clouds.2 mph74%29.92 "HgN/A
7:00 PM84 °FThundershowers. Passing clouds.8 mph66%29.89 "HgN/A
6:00 PM86 °FScattered clouds.6 mph62%29.86 "HgN/A
5:00 PM84 °FPartly sunny.2 mph79%29.83 "HgN/A
4:00 PM84 °FPartly sunny.16 mph79%29.86 "HgN/A
3:00 PM84 °FPartly sunny.12 mph74%29.86 "HgN/A
2:00 PM82 °FLight rain. Partly sunny.18 mph62%29.89 "HgN/A
1:00 PM88 °FPartly sunny.5 mph59%29.92 "HgN/A
Weather by CustomWeather, © 2014

See weather overviewHow to use our weather pages